Regional Weather Roundup
Issued by NWS

Home | Current Version | Previous Version | Text Only | Print | Product List | Glossary Off
Versions: 1 2 3 4 5 6 7 8 9 10 11 12 13 14 15 16 17 18 19 20 21 22 23 24 25 26 27 28 29 30 31 32 33 34 35 36 37 38 39 40 41 42 43 44 45 46 47 48 49 50

000
ASUS45 KSLC 281510
RWRUT

UTAH REGIONAL WEATHER ROUNDUP
NATIONAL WEATHER SERVICE SALT LAKE CITY UT
900 AM MDT MON JUL 28 2014

UTZ001>011-023>025-281600-

NORTHERN UTAH

CITY           SKY/WX    TMP DP  RH WIND       PRES   REMARKS
HILL AFB       CLOUDY    78  43  29 E10       30.24S
LOGAN          SUNNY     66  49  54 NW6       30.23R
OGDEN          CLOUDY    82  46  28 S8        30.21S
PROVO AIRPORT  PTSUNNY   79  52  38 SE10      30.27R
SALT LAKE CITY PTSUNNY   84  47  27 SE12      30.20R
VERNAL         MOSUNNY   75  45  34 VRB3      30.32R
WENDOVER       PTSUNNY   81  48  32 NE8       30.19R
HEBER CITY     MOSUNNY   73  48  40 CALM      30.33S
WEST JORDAN    MOSUNNY   82  57  42 SE16      30.24S

$$

UTZ012>022-026-027-281600-

SOUTHERN UTAH

CITY           SKY/WX    TMP DP  RH WIND       PRES   REMARKS
BRYCE CANYON   PTSUNNY   63  56  78 NE3       30.49R
CEDAR CITY     CLOUDY    68  55  63 SW7       30.33R
MILFORD        CLOUDY    75  54  47 SW14      30.28R
MOAB/CYNLANDS  SUNNY     79  55  43 VRB3      30.27R
PRICE          PTSUNNY   73  52  47 CALM      30.37S
ST GEORGE      MOSUNNY   81  55  41 S3        30.21R

$$

REGIONAL REPORTS     COLORADO/ARIZONA

CITY           SKY/WX    TMP DP  RH WIND       PRES   REMARKS
CRAIG, CO      SUNNY     64  52  64 CALM      30.41R
GRAND JUNCTION PTSUNNY   75  52  44 SW6       30.32R
RIFLE          MOSUNNY   72  48  42 CALM      30.37S
MONTROSE       PTSUNNY   73  52  47 S5        30.40S
CORTEZ         PTSUNNY   69  58  67 NE3       30.41S
PAGE, AZ       MOSUNNY   79  54  41 W5        30.28R
GRAND CANYON   MOSUNNY   66  56  70 E5        30.43S
KINGMAN        SUNNY     81  57  43 CALM      30.19R
FLAGSTAFF      CLOUDY    63  53  70 CALM      30.46R

$$

REGIONAL REPORTS    NEVADA/IDAHO/WYOMING

CITY           SKY/WX    TMP DP  RH WIND       PRES   REMARKS
LAS VEGAS, NV  PTSUNNY   85  60  42 VRB3      30.08R
ELY            PTSUNNY   68  51  54 E5        30.36R
ELKO           CLOUDY    76  46  34 CALM      30.24S
POCATELLO, ID  SUNNY     69  40  34 W5        30.21R
BURLEY         CLOUDY    72  45  37 E5        30.16R
EVANSTON, WY   PTSUNNY   69  36  29 E8        30.44R
ROCK SPRINGS   SUNNY     71  49  45 NE12      30.42R

$$


USA.gov is the U.S. government's official web portal to all federal, state and local government web resources and services.